Location: G�ppingen
(48.7089°N, 9.6563°E)
Time: 02:30:05
(UTC+01:00)

DUCHIFAT 1 - Visible Passes

Search period start: 20 March 2019 00:00
Search period end: 30 March 2019 00:00
Orbit: 587 x 605 km, 97.9° (Epoch: 18 March)

Date Brightness Start Highest point End Pass type
(mag) Time Alt. Az. Time Alt. Az. Time Alt. Az.
22 Mar ? 01:32:26 10° N 01:32:34 11° N 01:32:34 11° N visible
23 Mar ? 01:42:24 10° N 01:42:42 12° N 01:42:42 12° N visible
24 Mar ? 01:52:24 10° N 01:52:50 12° N 01:52:50 12° N visible
25 Mar ? 02:02:25 10° N 02:02:57 13° N 02:02:57 13° N visible
26 Mar ? 02:12:29 10° N 02:13:05 13° NNW 02:13:05 13° NNW visible
27 Mar ? 00:46:27 10° NNE 00:46:32 10° NNE 00:46:32 10° NNE visible
27 Mar ? 02:22:35 10° NNW 02:23:13 13° NNW 02:23:13 13° NNW visible
28 Mar ? 00:56:17 10° NNE 00:56:40 12° NNE 00:56:40 12° NNE visible
28 Mar ? 02:32:45 10° NNW 02:33:21 12° NNW 02:33:21 12° NNW visible
29 Mar ? 01:06:09 10° NNE 01:06:48 14° NNE 01:06:48 14° NNE visible
29 Mar ? 02:42:59 10° NNW 02:43:28 12° NNW 02:43:28 12° NNW visible
